Regional Weather Roundup
Issued by NWS

Home | Current Version | Previous Version | Graphics & Text | Print | Product List | Glossary On
Versions: 1 2 3 4 5 6 7 8 9 10 11 12 13 14 15 16 17 18 19 20 21 22 23 24 25 26 27 28 29 30 31 32 33 34 35 36 37 38 39 40 41 42 43 44 45 46 47 48 49 50
849
ASUS45 KTFX 050110
RWRMT
MONTANA REGIONAL WEATHER ROUNDUP
NATIONAL WEATHER SERVICE GREAT FALLS MT
700 PM MDT WED MAY 04 2016

NOTE: "FAIR" INDICATES FEW OR NO CLOUDS BELOW 12000 FEET WITH NO
SIGNIFICANT WEATHER AND/OR OBSTRUCTIONS TO VISIBILITY.

MTZ001>007-043-050200-
WEST OF THE DIVIDE

CITY           SKY/WX    TMP DP  RH WIND       PRES   REMARKS
KALISPELL      MOSUNNY   72  45  37 S8        29.86F
MISSOULA       MOSUNNY   74  38  27 NW5       29.87F
BUTTE          CLOUDY    70  22  16 W8        30.01S
MULLAN PASS    CLOUDY    60  37  42 CALM      30.01F
ANACONDA         N/A     72  27  18 S6        29.97F
DEER LODGE       N/A     72  34  25 NW5       29.96F
EUREKA           N/A     79  39  24 SW8       29.84S
HAMILTON         N/A     75  34  22 N5        29.87F
LIBBY            N/A     79  39  24 W5        29.84F
PLAINS           N/A     78  45  31 CALM      29.86F
$$

MTZ008-052>055-050200-
SOUTHWEST MONTANA

CITY           SKY/WX    TMP DP  RH WIND       PRES   REMARKS
BOZEMAN        SUNNY     76  29  17 SW13      29.95F
DILLON         CLOUDY    71  29  21 S10       29.98S
ENNIS          SUNNY     70  25  18 S16       30.06F
TWIN BRIDGES     N/A     72  30  21 SE3       29.97F
$$

MTZ009-010-012-014-046-048-049-054-050200-
EAST SLOPES AND CENTRAL MONTANA

CITY           SKY/WX    TMP DP  RH WIND       PRES   REMARKS
CUT BANK         N/A     73  32  22 W14       29.88S
GREAT FALLS    CLOUDY    77  35  21 NW9       29.87F
MALMSTROM AFB  SUNNY     77  32  19 W7        29.87F
HELENA         CLOUDY    81  28  14 W6        29.90F
CHOTEAU          N/A     77  34  20 VRB3      29.90S
CONRAD           N/A     72  42  33 W3        29.92S
$$

MTZ011-013-016-021-045-047-050-051-050200-
NORTH CENTRAL MONTANA

CITY           SKY/WX    TMP DP  RH WIND       PRES   REMARKS
HAVRE          PTSUNNY   81  41  24 SW7       29.81F
LEWISTOWN      SUNNY     76  35  22 SW9       29.91F
N BAR RANCH      N/A     75  34  22 SW7       29.96S
$$

MTZ017>020-022>027-061-062-050200-
NORTHEAST MONTANA

CITY           SKY/WX    TMP DP  RH WIND       PRES   REMARKS
GLASGOW        SUNNY     81  40  23 E10       29.82F
JORDAN           N/A     80  46  30 SW3       29.85F
SIDNEY         SUNNY     79  43  27 S9        29.87S
WOLF POINT     SUNNY     83  44  25 SW3       29.83F
POPLAR           N/A     84  41  21 SW5       29.84
SCOBEY           N/A     82  37  20 SW7       29.86F
$$

MTZ028>42-056>058-050200-
SOUTHCENTRAL AND SOUTHEAST MONTANA

CITY           SKY/WX    TMP DP  RH WIND       PRES   REMARKS
BAKER          SUNNY     76  43  30 S7        29.95F
BILLINGS       MOSUNNY   81  31  16 SE7       29.92F
LIVINGSTON     CLOUDY    73  26  17 SW12      29.95F
MILES CITY     SUNNY     82  33  17 VRB6      29.88F
EKALAKA          N/A     73  40  30 SE9       29.96F
FORSYTH          N/A     82  34  17 SW3       29.88F
LAUREL           N/A     79  41  25 E2        29.92F
ROUNDUP          N/A     80  36  20 CALM      29.83S
$$

REGIONAL REPORTS...DAKOTAS

CITY           SKY/WX    TMP DP  RH WIND       PRES   REMARKS
WILLISTON      SUNNY     81  37  20 SW7       29.86F
MINOT          CLEAR     84  37  18 SW9       29.87F
DICKINSON      CLEAR     74  37  26 SW9       29.93F
BEACH            N/A     75  36  23 S9        29.95F
CROSBY           N/A     81  36  19 SW9       29.87F
TIOGA            N/A     77  36  22 SW13      29.93S
WATFORD CITY     N/A     81  37  21 S9        29.89F
BISMARCK       CLEAR     73  47  39 S12       29.94F
GRAND FORKS    MOCLDY    69  33  26 E6        29.94F
FARGO          CLEAR     70  24  17 N5        29.96F
BUFFALO SD       N/A     74  41  30 S15       29.92F
RAPID CITY     CLEAR     68  45  43 SE9       30.01F
$$

REGIONAL REPORTS...WYOMING/IDAHO/WASHINGTON

CITY           SKY/WX    TMP DP  RH WIND       PRES   REMARKS
GILLETTE       SUNNY     72  43  35 CALM      29.99F
SHERIDAN       CLOUDY    76  39  26 E6        29.96F
BUFFALO WY     CLOUDY    72  36  26 E7        30.02F
CODY           CLOUDY    75  23  14 S9        30.00S
YELLOWSTONE LA   N/A     54  29  38 CALM      30.21F
IDAHO FALLS    CLOUDY    73  30  20 SW12      30.01F
SALMON         MOSUNNY   73  36  25 CALM      29.87F
BOISE          CLOUDY    80  33  18 W6        29.81F
SPOKANE        CLOUDY    73  42  32 NW9       29.85F
$$

REGIONAL REPORTS...ALBERTA

CITY           SKY/WX    TMP DP  RH WIND       PRES   REMARKS
EDMONTON       MOSUNNY   79  36  21 NW7       29.69S
CALGARY        PTSUNNY   77  30  18 S9G18     29.78S
LETHBRIDGE     PTSUNNY   79  32  18 SW13G24   29.81S
MEDICINE HAT   PTSUNNY   82  34  17 W18G40    29.74F
WATERTON GATE    N/A     70  36  28 SW13G22     N/A
CARDSTON         N/A     73  34  23 W10         N/A
MILK RIVER       N/A     75  36  23 W13G18      N/A
$$

REGIONAL REPORTS...SASKATCHEWAN

CITY           SKY/WX    TMP DP  RH WIND       PRES   REMARKS
SWIFT CURRENT  SUNNY     82  28  14 W6        29.80F
REGINA         MOSUNNY   84  36  17 W14       29.76F
SASKATOON      MOSUNNY   84  30  14 W13       29.71S
VAL MARIE        N/A     81  32  17 S9          N/A
ROCKGLEN         N/A     79  34  19 SW9         N/A
ASSINIBOIA       N/A     82  27  13 S3          N/A
$$




USA.gov is the U.S. government's official web portal to all federal, state and local government web resources and services.